[[{"header":{"parameterUnit":"m.s-1","parameterCategory":1,"la1":30.2991,"la2":30.254,"lo1":-89.0895,"lo2":-89.0444,"dy":0.0017,"dx":0.0017,"nx":28,"ny":28,"refTime":"2024-02-07T03:00:00:Z","depth":0,"parameterNumber":2,"parameterNumberName":"U-component_of_WINDS"},"data":[0,0,0,0,0,0,0,0,0,0,0,0,0,0,0,0,0,0,0,0,0,0,0,0,0,0,0,0,0,0,0,0,0,0,0,0,0,0,0,0,0,0,0,0,0,0,0,0,0,0,0,0,0,0,0,0,0,0,-4.743,-4.7431,0,-4.7517,-4.7518,-4.7519,-4.7519,-4.7518,-4.7517,-4.7516,-4.7603,-4.7606,-4.761,0,0,0,0,0,0,0,0,0,0,0,0,0,-4.7264,-4.7267,-4.7429,-4.7431,-4.7432,-4.7517,-4.7518,-4.7519,-4.7519,-4.7518,-4.7517,-4.7515,-4.7602,-4.7606,-4.761,0,0,0,0,0,0,0,0,0,0,0,0,0,-4.7342,-4.7268,-4.7429,-4.7442,-4.7444,-4.7516,-4.7518,-4.7519,-4.752,-4.7518,-4.7516,-4.7515,-4.7601,-4.7605,-4.761,-4.7675,0,0,-4.7626,-4.7628,0,0,0,0,0,0,0,0,-4.7337,-4.7348,-4.7439,-4.7441,-4.7444,-4.7505,-4.7491,-4.7571,-4.752,-4.7491,-4.7516,-4.7514,-4.7572,-4.7579,-4.7599,-4.7679,-4.7683,-4.7626,-4.7629,-4.7631,-4.7633,0,0,0,0,0,0,0,-4.7332,-4.7344,-4.7464,-4.7441,-4.7443,-4.7444,-4.7453,-4.7506,-4.754,-4.7493,-4.7494,-4.7504,-4.7573,-4.7594,-4.7601,-4.7684,-4.7626,-4.7631,-4.7634,-4.7636,-4.7824,-4.7825,0,0,0,0,0,0,-4.7324,-4.7339,-4.7461,-4.7467,-4.7385,-4.7448,-4.7458,-4.7487,-4.7539,-4.7545,-4.7505,-4.7504,-4.7586,-4.7595,-4.7604,-4.7683,-4.7631,-4.7636,-4.7639,-4.7822,-4.7824,-4.7826,0,0,0,0,0,0,-4.732,-4.7335,-4.7458,-4.7403,-4.7419,-4.7453,-4.7485,-4.749,-4.7511,-4.7548,-4.7554,-4.7521,-4.7585,-4.7597,-4.7658,-4.7686,-4.7638,-4.7643,-4.7819,-4.7822,-4.7825,-4.7842,0,0,0,0,0,0,-4.7316,-4.7333,-4.7358,-4.7404,-4.7422,-4.751,-4.7487,-4.7493,-4.752,-4.7519,-4.7564,-4.757,-4.7585,-4.765,-4.7663,-4.7692,-4.7647,-4.7817,-4.7821,-4.7824,-4.7839,-4.7845,-4.785,0,0,0,0,0,-4.731,-4.7358,-4.7359,-4.7374,-4.7453,-4.7511,-4.7522,-4.7538,-4.7523,-4.7547,-4.7572,-4.7569,-4.7682,-4.7657,-4.7671,-4.7702,-4.7815,-4.782,-4.7824,-4.7836,-4.7844,-4.785,0,0,0,0,0,0,-4.7313,-4.7364,-4.7366,-4.7431,-4.7467,-4.7511,-4.7543,-4.7545,-4.7586,-4.7583,-4.7601,-4.7611,-4.7672,-4.7694,-4.7665,-4.7768,-4.7747,-4.7754,-4.7751,-4.7759,-4.7764,-4.7757,-4.7651,0,0,0,0,0,-4.7321,-4.7365,-4.7407,-4.7461,-4.7479,-4.7508,-4.7534,-4.7544,-4.7582,-4.7597,-4.7625,-4.7662,-4.7706,-4.7734,-4.7776,-4.7844,-4.7854,-4.7873,-4.7878,-4.7883,-4.7888,-4.7926,-4.7935,-4.7841,-4.7841,-4.7841,0,0,-4.7338,-4.7372,-4.7398,-4.7462,-4.7491,-4.7536,-4.7521,-4.7568,-4.7601,-4.7604,-4.7663,-4.7686,-4.7728,-4.7793,-4.7822,-4.7812,-4.7917,-4.7888,-4.7892,-4.7894,-4.7931,-4.794,-4.7948,-4.7844,-4.7843,-4.7843,0,0,-4.7392,-4.7423,-4.747,-4.7501,-4.7546,-4.7566,-4.7578,-4.7624,-4.7639,-4.7699,-4.7703,-4.7743,-4.7818,-4.7849,-4.7874,-4.7944,-4.7943,-4.7958,-4.7986,-4.8023,-4.8031,-4.8037,-4.8062,-4.807,-4.7964,-4.7964,-4.7964,0,-4.7407,-4.7474,-4.7495,-4.7543,-4.7571,-4.7579,-4.7628,-4.7656,-4.7713,-4.7732,-4.7721,-4.7817,-4.7846,-4.7918,-4.7936,-4.7956,-4.797,-4.7951,-4.8028,-4.8035,-4.8042,-4.8065,-4.8074,-4.7965,-4.7965,-4.7965,-4.7965,0,-4.7491,-4.7538,-4.7572,-4.7628,-4.766,-4.7709,-4.7736,-4.7767,-4.7776,-4.7797,-4.786,-4.7896,-4.7946,-4.7965,-4.7973,-4.8039,-4.8031,-4.8024,-4.8002,-4.8052,-4.8074,-4.8083,-4.7967,-4.7967,-4.7966,-4.7966,0,0,-4.7544,-4.7614,-4.7626,-4.7652,-4.7705,-4.7741,-4.7792,-4.7842,-4.7868,-4.7909,-4.795,-4.8016,-4.8011,-4.804,-4.8052,-4.8085,-4.8139,-4.8074,-4.8075,-4.8083,-4.8214,-4.8217,-4.8227,-4.814,-4.8142,-4.8143,-4.821,0,-4.7602,-4.769,-4.7712,-4.7788,-4.7832,-4.7842,-4.7886,-4.7923,-4.7946,-4.7986,-4.8012,-4.8057,-4.8047,-4.8065,-4.8098,-4.8125,-4.8164,-4.8121,-4.8178,-4.818,-4.8164,-4.8238,-4.8241,-4.8302,-4.8218,-4.822,-4.8221,0,-4.768,-4.7724,-4.7804,-4.7854,-4.7873,-4.7912,-4.7961,-4.8001,-4.8044,-4.8059,-4.8093,-4.8103,-4.8156,-4.8135,-4.8208,-4.8178,-4.8204,-4.8221,-4.8224,-4.8227,-4.8201,-4.8242,-4.8321,-4.833,-4.8235,-4.8234,-4.8233,0,-4.7709,-4.7789,-4.7847,-4.787,-4.7929,-4.7956,-4.7982,-4.8024,-4.8055,-4.8099,-4.8118,-4.8168,-4.8194,-4.8232,-4.8256,-4.8238,-4.8328,-4.8308,-4.834,-4.834,-4.8355,-4.8353,-4.8438,-4.8376,-4.8376,-4.8376,-4.8376,0,-4.777,-4.7818,-4.7861,-4.7897,-4.7952,-4.7978,-4.8032,-4.8058,-4.8097,-4.8138,-4.8151,-4.8189,-4.822,-4.8263,-4.8282,-4.834,-4.8352,-4.8365,-4.8369,-4.8362,-4.836,-4.8377,-4.8372,-4.8378,-4.8378,-4.8377,-4.8377,0,-4.7809,-4.784,-4.7905,-4.7958,-4.7972,-4.8011,-4.8055,-4.8091,-4.8116,-4.8168,-4.8182,-4.8221,-4.8273,-4.8302,-4.8366,-4.8379,-4.8443,-4.8446,-4.8428,-4.843,-4.846,-4.8456,-4.8555,-4.8569,-4.8501,-4.8501,-4.8502,0,-4.7844,-4.7882,-4.794,-4.797,-4.7996,-4.8043,-4.8075,-4.8103,-4.8136,-4.8191,-4.822,-4.8273,-4.8316,-4.8398,-4.8432,-4.8482,-4.8485,-4.8517,-4.8492,-4.8485,-4.8484,-4.848,-4.8484,-4.852,-4.852,-4.8521,-4.8521,0,-4.7903,-4.7918,-4.7963,-4.8015,-4.8053,-4.8095,-4.8136,-4.816,-4.8195,-4.8231,-4.8285,-4.8319,-4.8387,-4.8439,-4.8493,-4.852,-4.8526,-4.853,-4.854,-4.8531,-4.8519,-4.8525,-4.8437,-4.8526,-4.8526,-4.8525,-4.8525,-4.8525,-4.7941,-4.7975,-4.8022,-4.8073,-4.8108,-4.8147,-4.8184,-4.8215,-4.8261,-4.8318,-4.8333,-4.839,-4.8435,-4.8508,-4.8537,-4.8582,-4.8576,-4.8591,-4.8594,-4.8596,-4.8597,-4.8515,-4.8592,-4.8592,-4.8592,-4.8592,-4.8592,0,-4.7999,-4.8031,-4.8078,-4.8136,-4.8177,-4.8183,-4.823,-4.8263,-4.8313,-4.8356,-4.84,-4.8462,-4.8514,-4.8554,-4.8608,-4.8636,-4.8641,-4.8649,-4.8646,-4.8652,-4.86,-4.8585,-4.8644,-4.8644,-4.8644,-4.8644,-4.8644,-4.8644,-4.8033,-4.8093,-4.8113,-4.8191,-4.8223,-4.8279,-4.8305,-4.8342,-4.8377,-4.8447,-4.849,-4.8517,-4.8559,-4.8616,-4.8664,-4.8675,-4.8693,-4.8701,-4.8711,-4.8661,-4.8655,-4.865,-4.8636,-4.8705,-4.8705,-4.8759,-4.876,-4.876]},{"header":{"parameterUnit":"m.s-1","parameterCategory":1,"la1":30.2991,"la2":30.254,"lo1":-89.0895,"lo2":-89.0444,"dy":0.0017,"dx":0.0017,"nx":28,"ny":28,"refTime":"2024-02-07T03:00:00:Z","depth":0,"parameterNumber":3,"parameterNumberName":"V-component_of_WINDS"},"data":[0,0,0,0,0,0,0,0,0,0,0,0,0,0,0,0,0,0,0,0,0,0,0,0,0,0,0,0,0,0,0,0,0,0,0,0,0,0,0,0,0,0,0,0,0,0,0,0,0,0,0,0,0,0,0,0,0,0,2.6134,2.6135,0,2.6243,2.6244,2.6246,2.636,2.6361,2.6363,2.6364,2.6471,2.6473,2.6474,0,0,0,0,0,0,0,0,0,0,0,0,0,2.602,2.6022,2.6133,2.6135,2.6136,2.6243,2.6244,2.6246,2.6359,2.6361,2.6363,2.6365,2.6471,2.6472,2.6474,0,0,0,0,0,0,0,0,0,0,0,0,0,2.6093,2.6022,2.6133,2.6206,2.6213,2.6243,2.6244,2.6246,2.6359,2.6361,2.6364,2.6366,2.647,2.6472,2.6474,2.6439,0,0,2.6481,2.6481,0,0,0,0,0,0,0,0,2.6089,2.6097,2.6194,2.6201,2.6209,2.629,2.6244,2.6311,2.6358,2.6303,2.6364,2.6367,2.6409,2.6416,2.6431,2.6444,2.6449,2.6481,2.6482,2.6483,2.6483,0,0,0,0,0,0,0,2.6084,2.6093,2.6177,2.6195,2.6205,2.6232,2.6245,2.6257,2.6341,2.6308,2.6317,2.6329,2.6413,2.6429,2.6435,2.645,2.6481,2.6483,2.6484,2.6485,2.6444,2.6442,0,0,0,0,0,0,2.6068,2.6088,2.6173,2.618,2.6154,2.6232,2.6247,2.6262,2.6341,2.6356,2.6326,2.6334,2.6424,2.6432,2.6439,2.6406,2.6483,2.6485,2.6486,2.6446,2.6444,2.6441,0,0,0,0,0,0,2.6065,2.6075,2.6169,2.6137,2.6151,2.6232,2.6248,2.6263,2.6278,2.6355,2.637,2.6327,2.6426,2.6436,2.644,2.6411,2.6486,2.6488,2.6449,2.6446,2.6442,2.6337,0,0,0,0,0,0,2.6062,2.6073,2.6061,2.6136,2.6152,2.6168,2.6246,2.6263,2.6282,2.6292,2.636,2.6373,2.6429,2.6436,2.6442,2.6415,2.6489,2.6452,2.6448,2.6443,2.6344,2.6331,2.632,0,0,0,0,0,2.6057,2.6025,2.606,2.6069,2.6139,2.6166,2.6176,2.6242,2.6279,2.6268,2.6318,2.6371,2.6413,2.6435,2.6443,2.6416,2.6454,2.6449,2.6444,2.6349,2.6333,2.632,0,0,0,0,0,0,2.5942,2.6036,2.6075,2.6067,2.6108,2.6185,2.6173,2.6223,2.6253,2.6261,2.6341,2.6355,2.635,2.6383,2.6406,2.6388,2.6441,2.6437,2.6367,2.6352,2.634,2.6333,2.6491,0,0,0,0,0,2.5916,2.5932,2.6012,2.5997,2.6016,2.609,2.6105,2.6153,2.6198,2.6216,2.6266,2.6306,2.633,2.6343,2.6368,2.6349,2.6366,2.6335,2.6323,2.6312,2.6308,2.6304,2.6291,2.6424,2.6424,2.6424,0,0,2.5862,2.5915,2.5919,2.5975,2.6013,2.6027,2.6104,2.6115,2.6127,2.6217,2.6225,2.6263,2.6314,2.6307,2.6306,2.6335,2.6276,2.6306,2.6297,2.6299,2.6297,2.6285,2.6273,2.6421,2.6421,2.6422,0,0,2.5771,2.5812,2.5805,2.5842,2.59,2.595,2.5948,2.6019,2.6049,2.6058,2.6127,2.6141,2.6178,2.6213,2.6235,2.6161,2.6211,2.6166,2.6103,2.6098,2.6087,2.6079,2.6054,2.6044,2.6162,2.6161,2.6161,0,2.5696,2.5721,2.5795,2.5803,2.5826,2.5911,2.5906,2.5937,2.5998,2.6012,2.6044,2.6095,2.6134,2.6138,2.6121,2.6135,2.6136,2.6159,2.6083,2.6075,2.6068,2.6045,2.6036,2.6156,2.6156,2.6157,2.6157,0,2.5627,2.5644,2.5631,2.5692,2.5713,2.5714,2.5788,2.5801,2.5847,2.5894,2.5904,2.5956,2.5994,2.5998,2.6042,2.6009,2.6026,2.6069,2.6124,2.6048,2.6029,2.602,2.6147,2.615,2.6151,2.6153,0,0,2.5465,2.5569,2.5563,2.5593,2.5664,2.5678,2.5683,2.5723,2.5734,2.5773,2.578,2.5811,2.5853,2.5878,2.5927,2.5922,2.5863,2.5967,2.597,2.5948,2.5832,2.58,2.5789,2.5897,2.5896,2.5895,2.5829,0,2.5388,2.5404,2.5472,2.5468,2.5486,2.5568,2.5573,2.5617,2.5661,2.5682,2.5731,2.5752,2.5805,2.5821,2.582,2.587,2.5841,2.5876,2.5905,2.5905,2.5891,2.5779,2.5744,2.5679,2.5821,2.582,2.5819,0,2.5299,2.5337,2.5335,2.5409,2.5419,2.5422,2.5466,2.5485,2.5536,2.5569,2.5599,2.5655,2.5666,2.5717,2.5733,2.5755,2.5771,2.5798,2.5797,2.5803,2.5858,2.5783,2.566,2.5651,2.5807,2.5808,2.5809,0,2.5184,2.5234,2.5241,2.5263,2.5348,2.5349,2.5385,2.5439,2.546,2.5497,2.5512,2.5549,2.5569,2.5597,2.5662,2.5693,2.5671,2.5727,2.5699,2.5698,2.5691,2.5691,2.5571,2.5699,2.5699,2.5699,2.5699,0,2.5091,2.5087,2.5191,2.5195,2.5194,2.5272,2.5268,2.5311,2.5359,2.5373,2.5445,2.5456,2.5541,2.5562,2.5612,2.5619,2.5627,2.5654,2.5668,2.5649,2.5646,2.5661,2.5668,2.5697,2.5697,2.5698,2.5698,0,2.4962,2.5031,2.5045,2.5125,2.5146,2.5141,2.521,2.5218,2.5268,2.5284,2.5293,2.537,2.5399,2.5467,2.5512,2.5546,2.5541,2.5564,2.5524,2.5533,2.5502,2.5504,2.5388,2.5378,2.551,2.5509,2.5508,0,2.4899,2.4899,2.4981,2.4997,2.503,2.5053,2.5076,2.5153,2.5174,2.5234,2.5234,2.5269,2.5302,2.5343,2.5403,2.5439,2.5466,2.5423,2.5471,2.5453,2.5467,2.5467,2.5468,2.5412,2.541,2.5408,2.5407,0,2.4781,2.4816,2.4847,2.489,2.4915,2.4952,2.4993,2.5002,2.5089,2.5108,2.514,2.5165,2.5214,2.5248,2.5293,2.5329,2.5383,2.5392,2.5388,2.5368,2.5345,2.5359,2.5496,2.5394,2.5395,2.5396,2.5397,2.5397,2.4685,2.469,2.4749,2.4781,2.4821,2.4858,2.487,2.4923,2.4951,2.4999,2.5042,2.507,2.5124,2.5191,2.5224,2.5246,2.5273,2.5267,2.5265,2.5263,2.5255,2.5341,2.5255,2.5255,2.5256,2.5256,2.5256,0,2.4572,2.4615,2.4644,2.4701,2.4727,2.4777,2.4826,2.4844,2.4868,2.4915,2.4946,2.4984,2.5018,2.5081,2.5121,2.5127,2.5153,2.5135,2.5136,2.5144,2.5228,2.5228,2.5114,2.5114,2.5114,2.5114,2.5114,2.5114,2.4516,2.4528,2.457,2.4603,2.4646,2.4676,2.47,2.4735,2.4773,2.4812,2.4842,2.4884,2.4938,2.4983,2.5017,2.5035,2.5047,2.5021,2.5047,2.5124,2.5137,2.515,2.5151,2.5023,2.5022,2.4961,2.4961,2.496]}]]